Regional Weather Roundup
Issued by NWS Charleston, SC

Current Version | Previous Version | Graphics & Text | Print | Product List | Glossary On
Versions: 1 2 3 4 5 6 7 8 9 10 11 12 13 14 15 16 17 18 19 20 21 22 23 24 25 26 27 28 29 30 31 32 33 34 35 36 37 38 39 40 41 42 43 44 45 46 47 48 49 50
000
ASUS42 KCHS 230611
RWRCHS

REGIONAL WEATHER ROUNDUP
NATIONAL WEATHER SERVICE CHARLESTON SC
100 AM EST THU FEB 23 2017

NOTE: "FAIR" INDICATES FEW OR NO CLOUDS BELOW 12,000 FEET WITH NO
SIGNIFICANT WEATHER AND/OR OBSTRUCTIONS TO VISIBILITY.

NOT ALL STATIONS ARE QUALITY CONTROLLED. USE DATA WITH CAUTION...
ESPECIALLY DEWPOINT OBSERVATIONS.

SCZ027-030-031-034>040-042>050-230700-
...SOUTHEAST SOUTH CAROLINA...

CITY           SKY/WX    TMP DP  RH WIND       PRES   REMARKS
N CHARLESTON   MOCLDY    61  57  87 NE9       29.85F
6HR MIN TEMP:  61; 6HR MAX TEMP:  66; 6HR PCP: TRACE;

WATERFRONT PRK   N/A     63  60  90 NE7       29.85S
MOUNT PLEASANT FAIR      59  57  94 CALM      29.86F
JOHNS ISLAND   CLOUDY    64  61  88 NE6       29.85F
PINOPOLIS        N/A     61  57  88 E5        29.78F
MONCKS CORNER  FAIR      59  55  88 E6        29.87S
SUMMERVILLE    FAIR      57  55  94 N3        29.87F
BEAUFORT MCAS  PTCLDY    62  60  93 NE7       29.84S
6HR MIN TEMP:  62; 6HR MAX TEMP:  67;

BEAUFORT ARPT  FAIR      61  59  94 NE6       29.83F
HILTON HEAD IS MOCLDY    63  61  94 NE8       29.84S
WALTERBORO     PTCLDY    59  57  94 NE5       29.86F
ALLENDALE      FAIR      63  59  88 CALM      29.84F

...SOUTHERN MIDLANDS AND PEE DEE...

CITY           SKY/WX    TMP DP  RH WIND       PRES   REMARKS
GEORGETOWN     FAIR      55  55 100 CALM      29.89S
KINGSTREE      FAIR      59  54  82 CALM      29.89S
ORANGEBURG     MOCLDY    57  55  93 NE5       29.87F
6HR MIN TEMP:  57; 6HR MAX TEMP:  67;

BARNWELL       FAIR      63  61  94 NE5       29.87R
AIKEN          FAIR      55  54  94 NE3       29.92R
MANNING        FAIR      54  46  76 MISG      29.89R
COLUMBIA       CLOUDY    64  56  75 NE3       29.89R
6HR MIN TEMP:  63; 6HR MAX TEMP:  70;

SUMTER         CLOUDY    59  54  83 N6        29.87S
6HR MIN TEMP:  57; 6HR MAX TEMP:  67;

FLORENCE       PTCLDY    57  54  89 E5        29.90S
6HR MIN TEMP:  57; 6HR MAX TEMP:  66;

MYRTLE BEACH   CLOUDY    62  55  77 E8        29.90S
N MYRTLE BEACH CLOUDY    58  55  90 NE6       29.89F
6HR MIN TEMP:  58; 6HR MAX TEMP:  64;


$$

GAZ063-065-086>088-099>101-113>116-118-119-134>141-150-230700-
...SOUTHEAST GEORGIA...

CITY           SKY/WX    TMP DP  RH WIND       PRES   REMARKS
SAVANNAH ARPT  CLOUDY    62  59  90 NE8       29.82F
6HR MIN TEMP:  62; 6HR MAX TEMP:  67;

HUNTER AAF     MOCLDY    63  63 100 CALM      29.80S
6HR MIN TEMP:  63; 6HR MAX TEMP:  66;

FORT STEWART   MOCLDY    62  60  95 N3        29.79F
6HR MIN TEMP:  62; 6HR MAX TEMP:  64; 6HR PCP:  0.34;

STATESBORO     CLOUDY    63  63 100 E3        29.82F
SYLVANIA       CLOUDY   N/A N/A N/A E6        29.84F
CLAXTON        FAIR     N/A N/A N/A NE5       29.82F

...CSRA...CENTRAL AND FAR SOUTHEAST GEORGIA...

CITY           SKY/WX    TMP DP  RH WIND       PRES   REMARKS
THOMSON        CLOUDY    60  60 100 CALM      29.92F
AUGUSTA-BUSH   CLOUDY    59  56  89 CALM      29.87R
6HR MIN TEMP:  57; 6HR MAX TEMP:  70;

AUGUSTA-DANIEL MOCLDY    64  56  75 N6        29.89R
SWAINSBORO     FAIR      61  61 100 NE3       29.85S
VIDALIA        CLOUDY    61  61 100 NE5       29.81F
EASTMAN        CLOUDY    62  62 100 CALM      29.86S
HAZLEHURST     CLOUDY    64  64 100 E5        29.80F
ALMA           MOCLDY    63  63 100 E5        29.79F
6HR MIN TEMP:  63; 6HR MAX TEMP:  65; 6HR PCP:  0.31;

WAYCROSS       CLOUDY    66  66 100 NE8       29.78F
JESUP          CLOUDY    64  61  88 NE5       29.80F
BAXLEY         CLOUDY    63  63 100 NE7       29.79F
BRUNSWICK      MOCLDY    64  64 100 E8        29.79F
SAINT SIMONS   MOCLDY    65  62  90 NE8       29.77F
6HR MIN TEMP:  64; 6HR MAX TEMP:  66; 6HR PCP: TRACE;


$$

SCZ027-028-034-036>038-045-046-048>050-GAZ119-141-230700-
...LAKE AND SUPPLEMENTAL COASTAL OBSERVATIONS...

STATION/POSITION TIME  TEMP    WIND        PRES    WAVE   SWELL
                       AIR SEA DIR/SP/G            HT/PER HT/PER/DIR
                 (UTC) (F)     (DEG/KT/KT) (MB)    (FT/S) (FT/S/D)
WINYAH BAY       NOT AVBL
LAKE MURRAY      0520   63      CALM  /  3 1011.9S
ACE BASIN NERRS  0445   62        CALM     1010.0
FORT PULASKI     0548           60/ 12/ 15 1009.9F
SAPELO ISLAND    0500   64      80/  5     1009.0

$$

ANZ835-935-AMZ111-154-330-350-352-354-370-450-454-472-230700-
...C-MAN AND BUOY OBSERVATIONS...

STATION/POSITION TIME  TEMP    WIND        PRES    WAVE   SWELL
                       AIR SEA DIR/SP/G            HT/PER HT/PER/DIR
                 (UTC) (F)     (DEG/KT/KT) (MB)    (FT/S) (FT/S/D)
BUOY 41004       0450   70 70  110/ 14/ 17 1010.4    6/ 6   3/120/ 8
BUOY 41008       0450   67 62  100/ 14/ 16 1008.3    6/ 7   5/130/ 7
FOLLY BEACH CMAN 0500   63      40/ 10/ 11 1011.5F
CAPERS NEARSHORE 0508   61 59   50/  8/ 12 1011.1F
FRIPP NEARSHORE  0508   63 61   60/ 10/ 12 1010.0F


STATION/POSITION TIME  TEMP    WIND        PRES    WAVE   SWELL
                       AIR SEA DIR/SP/G            HT/PER HT/PER/DIR
                 (UTC) (F)     (DEG/KT/KT) (MB)    (FT/S) (FT/S/D)
5E ST. MARYS GA  0530      64                N/A     6/ 8
FRYING PAN BUOY  0550   69 70  130/ 16/ 19 1011.9F   5/ 5   3/110/ 8
BUOY 41025       0550   68 74  160/ 14/ 16 1014.0F   3/10   3/ 80/10
CAPE LOOKOUT NC  0500   64     150/  9/  9 1013.4F
BUOY 41002       0550   67 70  110/ 19/ 23 1012.8F   6/10   3/ 50/10
BUOY 41010       NOT AVBL
ST AUGUSTINE FL  0600   67 67   80/ 14/ 16 1006.3F


$$



USA.gov is the U.S. government's official web portal to all federal, state and local government web resources and services.